{"data":{"norad_id":69906,"intl_designator":"2026-156AP","name":"TOM-3","alt_names":[],"object_type":"PAYLOAD","status":"ACTIVE","operator":null,"country":"GER","launch_date":"2026-07-07","launch_site_code":"AFWTR","launch_vehicle":null,"mission":null,"orbit_class":"UNKNOWN","rcs_meters":null,"size_class":null,"mass_kg":null,"dimensions":null,"purposes":[],"wikipedia_slug":null,"has_3d_model":false,"image_url":null,"decayed_at":null,"tle_current":{"epoch":"2026-09-19T23:16:19.246944Z","epoch_age_seconds":63606,"freshness":"FRESH","line1":"1 69906U 26156AP  26262.96966721  .00000602  00000+0  66506-4 0  9998","line2":"2 69906  97.7388 162.0260 0002780 226.9636 133.1350 14.90970835 11129","mean_motion":14.90970835,"eccentricity":0.000278,"inclination_deg":97.7388,"raan_deg":162.026,"arg_perigee_deg":226.9636,"mean_anomaly_deg":133.135,"bstar":6.6506e-5,"rev_number":1112,"period_min":96.581366060054,"perigee_km":592.96855038969,"apogee_km":596.84556288518,"semimajor_km":6973.0440566374,"source":"CELESTRAK","updated_at":"2026-09-20T09:00:25.173002Z"}}}